Lid_Strength_Index
3 3 3 2 2 2 2 2 2 2 2 2 2 2 2 1 2 7 9 6 5 4 4 7 8 9 8 9 9 9 14 16 14 14 13 12 13 12 11 13 12 11 12 10 9
3 3 3 2 2 2 2 1 2 2 2 2 2 2 2 2 5 9 6 4 4 4 8 9 11 9 11 10 10 12 14 14 13 13 14 13 13 13 13 13 12 11 9 8 8
3 3 2 2 2 2 2 2 2 2 2 2 3 3 3 3 8 10 5 4 4 5 7 8 8 10 11 10 11 12 14 13 13 12 12 13 13 11 12 13 12 12 10 9 8
3 3 3 3 2 2 2 2 3 3 3 3 3 3 4 5 14 9 5 5 4 6 7 8 9 10 12 12 10 13 11 12 11 11 12 12 11 12 11 11 9 9 9 9 9
3 3 3 3 2 2 2 3 3 3 3 3 3 4 6 10 12 7 4 6 7 7 8 9 10 10 12 11 11 12 11 10 10 10 11 10 12 12 11 10 9 9 9 9 9
3 3 3 3 2 2 3 3 3 3 4 3 3 4 8 13 7 7 7 8 8 8 8 8 10 9 10 11 12 11 11 11 10 10 10 12 12 12 11 10 10 9 9 9 9
4 3 3 3 3 3 4 4 4 4 4 4 4 6 10 11 7 8 7 8 7 7 9 8 8 9 10 11 10 11 13 11 11 11 11 11 13 13 10 9 10 9 9 9 9
3 3 3 3 3 4 4 5 5 4 4 4 5 7 12 8 8 8 8 7 7 6 7 7 7 8 10 9 11 13 13 16 11 11 11 12 17 11 10 11 11 10 9 9 9
3 4 4 4 3 4 5 5 5 5 6 6 8 9 13 8 10 8 8 9 8 7 7 7 7 10 9 13 14 14 20 17 14 10 11 13 15 11 9 9 10 9 9 9 8
3 3 3 3 3 3 4 5 5 6 6 9 10 11 11 12 10 9 7 8 9 8 8 9 10 12 13 15 21 19 18 16 16 12 11 13 13 11 9 9 10 11 10 10 9
3 3 3 3 3 4 5 6 8 9 9 12 13 12 11 10 8 8 7 8 8 9 13 12 13 16 15 14 14 15 16 16 13 11 13 13 13 11 9 10 11 12 11 10 10
2 3 4 3 4 4 5 9 11 10 13 11 12 11 11 10 12 9 7 10 13 15 12 13 15 13 12 13 14 15 16 17 14 11 13 13 13 10 9 10 11 12 12 11 10
2 2 3 4 4 5 8 9 7 7 13 13 12 12 12 11 12 11 9 10 14 15 16 16 13 12 13 15 15 15 17 17 16 14 12 13 14 12 10 10 10 11 11 11 11
2 3 4 4 5 6 9 7 7 8 15 14 14 13 11 10 12 10 8 10 11 17 14 14 12 13 15 16 14 19 13 14 15 19 21 13 21 14 12 12 11 12 12 11 11
2 4 5 4 6 9 9 7 7 8 19 14 14 10 10 12 12 11 8 10 13 14 15 15 15 15 16 14 13 16 13 14 14 20 18 16 21 16 13 14 14 13 11 11 11
2 4 5 5 7 8 7 8 8 14 19 17 14 14 14 12 12 11 10 9 10 14 14 15 12 14 14 13 12 12 14 14 15 19 21 20 21 19 16 16 14 12 12 11 11
3 5 6 7 8 8 8 9 14 17 15 16 17 15 16 16 14 13 13 13 15 19 18 15 15 14 13 15 13 14 19 23 24 23 22 20 20 18 15 14 13 13 12 12 12
5 6 8 8 7 7 8 12 17 14 15 16 16 16 17 16 15 15 15 15 14 16 19 22 22 17 13 15 17 16 19 23 29 24 21 20 23 17 13 12 12 12 12 12 13
5 7 8 8 7 7 10 14 15 14 15 16 15 17 16 16 17 16 16 15 14 16 20 21 20 15 14 13 14 16 19 16 23 22 22 21 17 14 14 16 14 13 13 14 14
7 8 10 8 7 8 13 13 12 14 14 15 15 16 19 17 17 17 16 14 15 14 15 18 23 17 15 14 13 16 14 22 21 25 27 22 22 20 21 21 18 16 16 15 14
7 10 9 7 8 11 13 12 12 13 13 15 15 18 16 17 16 15 16 15 13 15 14 17 21 20 17 20 18 17 20 20 20 18 22 25 22 18 21 21 19 18 15 16 15
7 13 9 8 13 13 13 12 14 14 12 14 15 15 16 15 16 18 16 15 13 14 17 15 17 24 21 13 13 14 18 16 23 23 18 19 20 16 18 19 21 19 16 15 15
11 12 8 9 13 13 14 14 14 14 14 15 15 14 14 17 18 15 15 13 13 14 16 15 20 26 21 18 16 18 15 14 17 16 22 23 21 18 18 19 20 19 19 16 15
10 13 12 12 11 12 13 13 15 13 14 14 14 14 15 17 15 17 15 14 12 13 12 13 16 23 24 23 21 20 17 15 17 23 20 19 17 14 17 18 20 20 20 18 15
9 12 11 14 13 12 11 12 14 15 14 14 15 15 16 18 17 19 15 15 14 12 14 15 24 20 18 17 17 17 18 18 19 17 22 18 21 15 14 14 20 20 21 18 18
11 11 11 11 12 12 12 13 13 13 14 15 16 14 14 17 15 16 15 15 16 14 15 15 24 23 24 17 17 19 17 17 18 18 19 17 18 14 14 20 20 20 21 20 18
8 8 8 10 12 12 13 12 12 12 12 12 13 13 15 14 13 13 13 14 15 15 15 19 22 27 26 20 21 23 22 20 19 19 19 22 18 20 20 21 21 21 23 22 20